Location: Pedholt
(56.0260°N, 10.2097°E)
Time: 20:38:49
(UTC+00:00)

SR - Pass Details

Date: 02 August 2021
Orbit: 581 x 873 km, 66.7° (Epoch: 27 September)

Event Time Altitude Azimuth Distance (km) Brightness Sun altitude
Rises 14:56:12 0° 308° (NW) 3,117 ? 35.0°
Reaches altitude 10° 14:59:43 10° 284° (WNW) 2,123 ? 34.5°
Maximum altitude 15:02:02 14° 254° (WSW) 1,844 ? 34.2°
Drops below altitude 10° 15:04:17 10° 225° (SW) 2,033 ? 33.9°
Sets 15:07:32 0° 199° (SSW) 2,882 ? 33.5°
